RANGE A

导读

RANGE A是美国于2018年12月3日在范登堡太空军基地SLC-4E发射场,由猎鹰9号火箭搭载升空的3U立方星,与RANGE B一同部署,隶属于那次共计65颗卫星的拼车发射任务。该卫星由北卡罗来纳大学主导开发,采用克莱德空间提供卫星平台,发射质量仅4千克,运行在近地点573公里、远地点587公里、倾角97.77°的太阳同步近地轨道,无搭载推进系统,主要配合对地观测任务开展技术验证,依托太阳能供能维持在轨运行。

Basic Information
目录编号:
43773
目录名称:
RANGE A
国际标识:
2018-099R
轨道中心:
EARTH
卫星名称:
RANGE A
卫星全名:
--
卫星状态:
在轨 (已飞行2849 天)
发射日期:
2018-12-03 UTC
国别 :
美国 (US)
星等 :
--
This satellite is enrolled in the Space Conjunction Data Service (SCDS) and the current flight risk assessment level is: No High Risk
Orbit Information
数据来源 国际轨道数据 AOE轨道数据
星历时间 2026-09-20T23:09:18+0800
1天前
查看轨道信息
2026-09-15T23:00:00+0800
6天前
查看轨道信息
半长轴 6901.968km 6902.033km
偏心率 0.0010648 0.0011139
轨道倾角 97.388° 97.389°
近地点辐角 25.666° 41.223°
升交点赤经 303.418° 298.559°
平近点角 334.509° 48.273°
近地点 516.481km 516.207km
远地点 531.181km 531.585km
周期 95.108分钟 95.110分钟
每日圈数 15.14061 15.140396
Detailed Information
使用方式:
暂无
2D Orbit Map
3D Orbit Map
Orbit Altitude Analysis Chart
Orbit Inclination Analysis Chart
Orbit Comprehensive Analysis Chart
View Comprehensive Chart
Conjunction Data List
Event ID Objects TCA Miss Dist (km) Collision Risk Probability Collision Risk Index (CRI) Action
CDM_260922-204204-377306-846321
RANGE A (43773)
GARAI-B (68463)
2026-09-22T
20:42:58+0000
2.366 km
极远距离
1.537226E-6 低风险 0.39
Miss Distance Evolution Trend with All Objects Subscribe to Flight Safety Assessment
Collision Probability Evolution Trend with All Objects Subscribe to Flight Safety Assessment